This is the latest recevied weather packets stored in our database for station/object KC4JIR. If no packets are shown the sender has not sent any weather packets the latest 10 day(s).
| Time | Temp. | Humidity | Pressure | Rain* | Wind** | Luminosity | Snow |
|---|---|---|---|---|---|---|---|
| 1788554209 | 34.44° C | 63% | 1011.5 hPa | 0 mm | - | 114 W/m² | - |
| 1788553906 | 34.44° C | 60% | 1011.4 hPa | 0 mm | - | 575 W/m² | - |
| 1788553601 | 33.89° C | 63% | 1011.5 hPa | 0 mm | - | 161 W/m² | - |
| 1788553297 | 35° C | 61% | 1011.3 hPa | 0 mm | - | 148 W/m² | - |
| 1788552992 | 35° C | 61% | 1011.6 hPa | 0 mm | - | 655 W/m² | - |
| 1788552687 | 35.56° C | 62% | 1011.7 hPa | 0 mm | - | 643 W/m² | - |
| 1788552387 | 35° C | 61% | 1011.6 hPa | 0 mm | - | 613 W/m² | - |
| 1788552082 | 34.44° C | 62% | 1011.7 hPa | 0 mm | - | 597 W/m² | - |
| 1788551781 | 33.33° C | 64% | 1011.8 hPa | 0 mm | - | 590 W/m² | - |
| 1788551480 | 32.78° C | 68% | 1011.8 hPa | 0 mm | - | 101 W/m² | - |
| 1788551174 | 32.78° C | 68% | 1012.1 hPa | 0 mm | - | 99 W/m² | - |
| 1788550869 | 32.78° C | 66% | 1012.2 hPa | 0 mm | - | 121 W/m² | - |
| 1788550564 | 33.89° C | 64% | 1011.9 hPa | 0 mm | - | 107 W/m² | - |
| 1788550260 | 35° C | 61% | 1012 hPa | 0 mm | - | 746 W/m² | - |
| 1788549960 | 34.44° C | 62% | 1011.8 hPa | 0 mm | - | 730 W/m² | - |
| 1788549656 | 34.44° C | 61% | 1012.2 hPa | 0 mm | - | 721 W/m² | - |
| 1788549352 | 34.44° C | 61% | 1012.2 hPa | 0 mm | - | 669 W/m² | - |
| 1788549048 | 33.89° C | 66% | 1012.1 hPa | 0 mm | - | 588 W/m² | - |
| 1788548743 | 34.44° C | 64% | 1012.3 hPa | 0 mm | - | 650 W/m² | - |
| 1788548440 | 35° C | 62% | 1012.2 hPa | 0 mm | - | 174 W/m² | - |
| 1788548136 | 33.89° C | 66% | 1012.5 hPa | 0 mm | - | 750 W/m² | - |
| 1788547830 | 33.33° C | 66% | 1012.8 hPa | 0 mm | - | 710 W/m² | - |
| 1788547525 | 32.78° C | 67% | 1012.7 hPa | 0 mm | - | 698 W/m² | - |
| 1788547220 | 33.33° C | 65% | 1012.6 hPa | 0 mm | - | 154 W/m² | - |
| 1788546915 | 33.33° C | 67% | 1013.1 hPa | 0 mm | - | 720 W/m² | - |
* Rain latest hour (hover to see other rain measurements)
** Current wind speed in m/s (hover to see current wind gust speed)